Flag for Germany Weather past 2 weeks in Bayreuth, Bavaria, Germany

Now
68 °F

Overcast.


Feels Like: 68 °F
Forecast: 60 / 75 °F
Wind: 5 mph from Southeast

Location: Grafenwoehr

Current Time: Jul 30, 2014 at 8:00:03 PM

Latest Report: Jul 30, 2014 at 6:58 PM


Visibility: N/A

Pressure: 29.78 "Hg

Humidity: 94%

Dew point: 66 °F

Location of BayreuthLocation

Historic Weather in Bayreuth — Graph

°F

Bayreuth temperature yesterday

Maximum temperature yesterday: 81 °F (at 3:58 PM)
Minimum temperature yesterday: 61 °F (at 12:58 AM)
Average temperature yesterday: 69 °F

Past Weeks' High & Low Weather Summary

 TemperatureHumidityPressure
High90 °F (Jul 20, 3:58 PM)100% (Jul 18, 2:58 AM)30.16 "Hg (Jul 18, 2:58 AM)
Low50 °F (Jul 24, 5:58 AM)29% (Jul 18, 6:58 PM)29.69 "Hg (Jul 29, 4:58 PM)
Average69 °F72%29.92 "Hg
* Reported Jul 15 6:58 PM — Jul 30 6:58 PM, Bayreuth, Weather by CustomWeather, © 2014

Note: Actual official high and low records may vary slightly from our data, if they occured in-between our weather recording intervals... More about our weather records

Advertising

Bayreuth weather history for previous 24 hours

 ConditionsComfort  
Time TempWeatherWind HumidityBarometerVisibility
6:58 PM
Jul 30
68 °FOvercast.5 mph94%29.78 "HgN/A
5:58 PM70 °FDrizzle. Mostly cloudy.1 mph78%29.77 "HgN/A
4:58 PM70 °FLight rain. Fog.No wind88%29.77 "Hg5 mi
4:04 PM70 °FHeavy rain. Cloudy.5 mph88%29.79 "Hg2 mi
2:58 PM75 °FScattered clouds.1 mph63%29.73 "HgN/A
1:59 PM73 °FBroken clouds.2 mph69%29.78 "HgN/A
12:58 PM73 °FBroken clouds.5 mph69%29.74 "HgN/A
11:58 AM70 °FBroken clouds.2 mph78%29.75 "HgN/A
10:58 AM66 °FLow clouds.6 mph88%29.76 "HgN/A
9:58 AM66 °FFog.5 mph88%29.75 "Hg6 mi
9:04 AM64 °FLow clouds.2 mph94%29.78 "HgN/A
8:58 AM65 °FLow clouds.No wind90%29.75 "HgN/A
7:58 AM63 °FFog.3 mph95%29.74 "Hg4 mi
7:03 AM63 °FFog.2 mph94%29.75 "Hg3 mi
5:58 AM61 °FFog.2 mph100%29.72 "Hg1 mi
5:03 AM63 °FFog.3 mph94%29.75 "Hg2 mi
3:58 AM61 °FPassing clouds.2 mph96%29.70 "HgN/A
2:58 AM62 °FPartly cloudy.No wind94%29.70 "HgN/A
1:58 AM61 °FPassing clouds.1 mph100%29.71 "HgN/A
12:58 AM63 °FPassing clouds.1 mph94%29.71 "HgN/A
11:58 PM
Jul 29
64 °FPassing clouds.No wind95%29.72 "HgN/A
10:58 PM65 °FPassing clouds.2 mph95%29.71 "HgN/A
9:58 PM66 °FOvercast.No wind94%29.71 "HgN/A
8:58 PM68 °FMostly cloudy.2 mph92%29.71 "HgN/A
Weather by CustomWeather, © 2014

See weather overviewHow to use our weather pages